Regional Weather Roundup
Issued by NWS

Home | Current Version | Previous Version | Text Only | Print | Product List | Glossary On
Versions: 1 2 3 4 5 6 7 8 9 10 11 12 13 14 15 16 17 18 19 20 21 22 23 24 25 26 27 28 29 30 31 32 33 34 35 36 37 38 39 40 41 42 43 44 45 46 47 48 49 50
000
ASHW40 PHFO 290510
RWRHI

WEATHER ROUNDUP FOR HAWAII
NATIONAL WEATHER SERVICE HONOLULU HI
700 PM HST THU AUG 28 2014

THIS IS AN AUTOMATED REPORT THAT HAS NOT BEEN QUALITY CONTROLLED.

NOTE..."FAIR" INDICATES FEW OR NO CLOUDS BELOW 12,000 FEET WITH NO
SIGNIFICANT WEATHER AND/OR OBSTRUCTIONS TO VISIBILITY.

* - THESE SITES REPORT LIMITED FIELDS

HIZ001>004-290600-
KAUAI-NIIHAU-

CITY           SKY/WX    TMP DP  RH WIND       PRES   REMARKS
LIHUE APT      PTCLDY    79  69  71 NE14      29.89S
PORT ALLEN*    NOT AVBL
POIPU*         NOT AVBL
PRINCEVILLE*   NOT AVBL
KOKOLE POINT*  NOT AVBL
MOLOAA DAIRY*  NOT AVBL
WAIMEA HTS*    NOT AVBL
PUU OPAE*      NOT AVBL
PUU LUA*       NOT AVBL
MAKAHA RIDGE*  NOT AVBL
$$

HIZ005>011-290600-
OAHU-

CITY           SKY/WX    TMP DP  RH WIND       PRES   REMARKS
HONOLULU       PTCLDY    81  66  60 NE8       29.87R
KALAELOA       CLEAR     81  66  60 VRB3      29.88R
KANEOHE MCB    MOCLDY    82  70  65 NE7       29.88R
WHEELER FIELD  FAIR      77  66  68 NE8       29.90R
BELLOWS*       NOT AVBL
KAHUKU*        NOT AVBL
WHEELER*       NOT AVBL
WAIANAE HARBOR NOT AVBL
DILLINGHAM*      N/A     79  70  73 NE7G14      N/A
KAHUKU TRN*      N/A     75  70  83 E6G16       N/A
KAWAILOA*      NOT AVBL
KII*             N/A     79  70  73 E12G17      N/A
MAKUA RANGE*     N/A     81  70  69 NE10G20     N/A
OAHU FOREST NW NOT AVBL
SCHOFIELD BRK*   N/A     75  66  73 MISG        N/A
SCHOFIELD S*   NOT AVBL
WAIANAE VLY*   NOT AVBL
KUAOKALA*      NOT AVBL
HONOULIUULI*   NOT AVBL
MOKUOLOE IS*     N/A    N/A N/A N/A MISG        N/A
PALEHUA*       NOT AVBL
WAIAWA PHB*    NOT AVBL
$$

HIZ012>013-290600-
MOLOKAI-

CITY           SKY/WX    TMP DP  RH WIND       PRES   REMARKS
MOLOKAI AIRPT  CLEAR     77  72  84 NE8       29.89R
KALAUPAPA      NOT AVBL
MAKAPULAPAI*   NOT AVBL
MOLOKAI 1*     NOT AVBL
PUU ALII*      NOT AVBL
$$

HIZ016-290600-
KAHOOLAWE-

CITY           SKY/WX    TMP DP  RH WIND       PRES   REMARKS
KAHOOLAWE*     NOT AVBL
HAKIOAWA*      NOT AVBL
HONOKANAIA*      N/A     80  69  68 N12G18    29.88R
KANELOA*       NOT AVBL
KEALIALALO*    NOT AVBL
LUA MAKIKA*    NOT AVBL
$$

HIZ014>015-290600-
LANAI-

CITY           SKY/WX    TMP DP  RH WIND       PRES   REMARKS
LANAI CITY     FAIR      74  67  78 E7        29.93R
LANAI 1*       NOT AVBL
$$

HIZ017>028-290600-
MAUI-

CITY           SKY/WX    TMP DP  RH WIND       PRES   REMARKS
KAHULUI        PTCLDY    79  69  71 NE14      29.87R
KAPALUA-W MAUI NOT AVBL
HANA AIRPORT   NOT AVBL
HANA*          NOT AVBL
HALEAKALA SUMM NOT AVBL
MAALAEA BAY*   NOT AVBL
HALEAKALA*     NOT AVBL
KAUPO GAP*     NOT AVBL
KULA 1*          N/A     55  54  96 N3G9        N/A
$$

HIZ023>026-290600-
BIG ISLAND OF HAWAII COAST AND LOWER SLOPES-

CITY           SKY/WX    TMP DP  RH WIND       PRES   REMARKS
KAILUA KONA    CLOUDY    83  66  56 S12       29.83R
HILO           MOCLDY    79  70  74 N6        29.87R
HONOKAA*       NOT AVBL
KAWAIHAE MWT*  NOT AVBL
KAWAIHAE*        N/A     84 N/A N/A SW8         N/A
SOUTH POINT*   NOT AVBL
UPOLU AIRPORT* NOT AVBL
KAMUELA*       NOT AVBL
HAKALAU*         N/A     51  49  94 CALM        N/A
KALOKO-HONOKO* NOT AVBL
PALI 2*          N/A     66  63  88 E5G12       N/A
KEALAKOMO*       N/A     82  68  61 N10G18      N/A
KAUPULEHU*     NOT AVBL
KAPAPALA*        N/A     69  66  91 CALM        N/A
LOWER KAHUKU*  NOT AVBL
PUHE CS*       NOT AVBL
PUHO CS*       NOT AVBL
PTA KEAMUKU*     N/A     64  61  88 NE12G18     N/A
WAIKOLOA*      NOT AVBL
$$

HIZ027>028-290600-
BIG ISLAND OF HAWAII INTERIOR AND SUMMMITS-

CITY           SKY/WX    TMP DP  RH WIND       PRES   REMARKS
BRADSHAW FIELD CLOUDY    59  54  82 S5        30.20R
MK VISITOR CEN NOT AVBL
MAUNA KEA*     NOT AVBL
MAUNA LOA*     NOT AVBL
MAUNA LOA 1*   NOT AVBL
PTA KIPUKA*      N/A     61  55  82 NW3G12      N/A
PTA RANGE 17*    N/A     61  55  82 W7          N/A
PTA WEST*        N/A     63  59  88 W5G14       N/A
NENE CABIN*    NOT AVBL
AHUMOA*        NOT AVBL
PTA PORTABLE*  NOT AVBL
PUU MALI*      NOT AVBL
$$

HIC003-290600-
NORTHWEST ISLANDS-

CITY           SKY/WX    TMP DP  RH WIND       PRES   REMARKS
MIDWAY ISLAND  MOSUNNY   84  73  70 E14G22    30.05S HX  91
MIDWAY NOS*    NOT AVBL
FRENCH FRIGATE NOT AVBL
$$

PHZ110>124-180-290600-
BUOY REPORTS

STATION/POSITION TIME  TEMP    WIND        PRES    WAVE   SWELL
                       AIR SEA DIR/SP/G            HT/PER HT/DIR
                 (UTC) (F)     (DEG/KT/KT) (MB)    (FT/S) (FT/D)
BUOY 51001       NOT AVBL
BUOY 51101       NOT AVBL
BUOY 51100       0500   78      60/ 12       N/A
BUOY 51003       0400   81 82   90/ 10/ 12 1010.5R   6/15   5
BUOY 51004       0425   78 81   70/  6/  8 1010.7R   6/14   7/130
BARBERS PT BUOY  NOT AVBL
WAIMEA BAY BUOY  0500      81                N/A     4/ 7   2/ 30
KAILUA BAY BUOY  0500      81                N/A     5/10   2/130
LANAI BUOY       NOT AVBL
BARBERS PT 2     0500      81                N/A     4/15   3/190
PAUWELA MAUI     0500      81                N/A     6/10   2/ 60
HILO             NOT AVBL
KANEOHE BAY BUOY 0500      81                N/A     5/ 9   2/ 70
HANALEI KAUAI    NOT AVBL
KAHULUI HARBOR   0500   79 82   40/ 10/ 14 1011.4R
HONOLULU HARBOR  0500   81      70/  4/  9 1011.7R
KILO NALU        NOT AVBL
HILO HARBOR      0500   79      10/  7/  9 1010.8R
MOKUOLOE         0500      83              1012.1R
NAWILIWILI       0500      85                N/A
WHOTS BUOY       NOT AVBL
BUOY 51028       NOT AVBL
$$

......................KEY........................................
  SKY/WX - SKY CONDITIONS/PRESENT WEATHER
  TMP    - TEMPERATURE IN FAHRENHEIT
  DWPT   - DEWPOINT IN FAHRENHEIT
  RH     - RELATIVE HUMIDITY IN PERCENT
  WIND   - DIRECTION AND SPEED /MPH FOR ISLANDS...KTS FOR BUOYS/
  PRES   - MEAN SEA LEVEL PRESSURE IN INCHES OF HG
  VSB    - VISIBILITY IN MILES
  HX     - HEAT INDEX
  WCI    - WIND CHILL INDEX
  VRB    - VARIABLE WIND DIRECTION
  N/A    - NOT AVAILABLE



USA.gov is the U.S. government's official web portal to all federal, state and local government web resources and services.